Wind_Speed
47 47 48 48 49 49 49 49 50 51 51 52 54 55 56 58 60 61 62 63 63 62 60 59 57 54 53 52 51 50 49 48 46 44 43 40 37 34 31 29 27 25 24
48 48 48 49 49 50 50 51 52 53 53 54 54 56 58 60 61 63 64 65 66 66 65 65 63 60 58 56 55 54 53 51 49 48 45 43 40 37 34 32 29 28 26
49 49 50 50 50 51 51 52 52 53 54 54 54 55 57 59 61 63 65 66 68 69 69 68 67 66 64 61 60 58 56 54 53 51 48 46 43 41 38 35 32 30 28
50 51 51 51 51 51 52 52 52 52 52 52 53 53 54 56 57 59 62 64 67 68 69 69 69 69 69 68 66 64 62 59 56 54 52 50 47 43 40 37 35 32 30
51 51 51 50 51 51 52 52 51 51 51 51 51 51 51 51 52 53 55 58 61 63 65 67 68 68 69 70 68 67 67 64 60 57 55 52 49 46 43 40 37 34 32
51 50 51 51 51 51 51 50 50 49 49 48 48 48 48 49 49 49 50 51 53 55 58 62 65 66 66 67 68 67 67 67 64 61 58 54 51 48 45 42 39 36 33
50 50 50 51 50 49 49 48 47 46 46 46 46 46 47 48 49 48 47 47 47 47 49 52 57 61 63 65 66 67 67 67 65 62 60 56 54 51 48 44 41 38 36
50 50 50 50 49 47 46 45 44 43 43 43 44 44 44 45 46 46 46 46 44 43 43 44 46 51 55 58 62 62 62 66 66 63 59 56 55 53 50 47 44 40 37
50 50 50 49 48 46 44 41 40 39 39 39 40 40 41 41 43 44 44 44 43 41 40 40 41 42 46 49 52 55 57 60 63 64 62 58 54 53 51 48 45 41 38
50 49 49 47 45 43 40 38 36 35 34 34 35 36 37 38 40 41 42 43 41 40 39 38 38 38 40 42 44 48 52 55 59 60 60 58 55 52 50 48 45 42 39
49 49 48 46 44 41 37 34 32 30 29 29 30 31 33 36 38 39 40 41 40 39 38 37 36 36 37 38 39 42 46 51 55 56 57 56 55 54 51 49 46 43 39
48 47 46 44 41 37 33 30 28 25 24 24 25 27 29 31 35 37 38 39 39 38 37 36 35 34 33 35 37 39 42 46 51 54 55 55 54 53 52 49 46 43 40
47 45 44 42 39 35 31 27 23 20 19 19 20 22 25 27 31 34 36 36 36 36 35 35 33 32 31 32 34 36 39 42 46 50 52 53 53 52 51 49 46 43 41
46 44 42 40 37 32 28 24 19 15 14 14 15 18 21 23 26 29 32 34 34 34 34 33 32 31 30 30 31 32 34 38 42 47 50 51 53 52 50 49 46 43 41
45 43 40 39 35 30 26 21 17 13 11 10 11 13 16 20 23 25 28 30 31 31 32 31 31 29 28 28 30 32 32 35 40 46 48 50 51 51 50 48 46 44 41
44 41 39 37 33 28 23 20 17 13 9 6 6 10 13 17 21 23 25 27 28 29 29 29 29 28 27 27 29 31 32 34 39 45 48 49 49 49 49 47 46 44 41
42 40 37 35 31 27 23 19 16 12 8 3 2 6 9 13 17 20 23 24 25 25 26 27 28 27 27 27 29 30 31 34 38 44 47 48 48 48 47 46 44 43 41
41 38 36 33 29 26 23 20 16 12 7 3 1 4 7 10 14 17 19 21 22 22 23 25 25 25 25 26 28 29 30 34 39 44 47 48 48 47 47 45 44 42 40
39 37 35 31 28 25 23 20 16 12 8 5 2 3 6 9 11 14 15 17 18 19 20 21 23 23 24 26 28 29 30 33 40 45 46 46 46 46 45 44 43 41 39
38 36 33 30 27 25 22 20 17 13 10 7 5 4 6 7 9 11 13 15 16 16 17 18 20 21 23 25 28 29 30 35 40 44 45 45 46 45 44 43 41 40 38
36 34 32 29 26 24 22 20 18 15 12 10 7 6 6 7 8 10 12 13 14 14 15 16 16 19 22 25 27 29 32 36 40 43 43 43 43 43 41 40 40 38 36
34 32 31 29 27 24 21 19 18 16 14 13 11 8 8 7 7 9 10 10 11 13 14 14 15 18 22 24 27 30 32 35 39 41 41 41 42 42 41 39 36 35 34
31 30 28 27 26 24 22 19 18 17 16 15 14 13 11 11 11 10 10 10 11 12 12 14 16 19 23 26 29 31 33 34 37 39 40 39 39 38 37 35 34 32 31
28 28 26 25 25 24 22 20 19 18 17 16 15 14 14 13 13 13 12 12 12 12 14 17 20 22 24 28 29 30 32 34 35 37 37 36 35 35 34 32 31 29 28
26 26 24 23 23 23 22 20 19 19 18 17 17 16 16 15 14 14 14 15 16 16 18 20 22 24 25 28 29 32 33 33 32 33 34 33 32 30 30 29 28 27 26
23 23 23 22 21 22 21 20 20 19 19 19 19 19 18 18 17 17 17 16 17 19 20 22 23 24 26 28 31 33 33 32 31 31 31 31 30 28 27 26 25 24 23
Wind_Direction
299 297 295 292 290 286 283 279 276 273 270 266 262 259 256 254 251 250 248 246 245 244 244 244 242 242 241 240 238 237 237 237 237 237 238 237 236 237 239 242 245 248 252
301 299 297 294 291 288 285 282 278 275 272 268 265 261 258 255 252 250 248 246 245 244 243 242 241 241 241 240 238 238 237 236 236 236 237 237 237 236 237 239 243 246 249
303 301 299 296 293 289 286 283 280 277 273 271 267 263 259 255 252 250 248 246 245 243 242 241 240 239 239 238 238 237 237 237 236 236 235 236 236 236 236 237 240 243 246
305 303 301 298 295 292 288 285 281 277 273 270 267 264 261 257 253 250 248 246 244 243 242 241 240 240 240 239 238 237 237 237 236 235 235 235 235 235 235 235 237 240 243
308 306 303 301 298 295 291 286 281 277 273 270 267 264 260 257 253 251 248 246 244 243 242 241 240 240 239 239 238 238 237 236 235 234 234 233 233 233 234 234 235 238 240
311 309 306 304 301 297 293 288 282 277 272 269 266 261 257 254 252 249 246 245 243 242 242 241 240 240 239 239 238 238 237 236 235 234 233 232 232 232 232 232 233 235 237
315 313 310 308 305 301 296 291 285 278 272 266 262 258 255 252 249 246 244 242 241 240 240 241 241 241 240 240 239 238 236 235 233 232 231 231 231 230 230 231 231 233 235
319 316 313 311 308 305 299 294 287 279 273 267 261 256 253 249 247 243 240 238 237 237 237 237 239 240 240 240 239 238 237 234 233 231 229 229 228 227 228 228 229 230 232
322 320 318 315 311 307 303 296 289 282 274 267 260 254 249 247 244 241 238 235 234 234 234 236 237 238 239 239 238 237 235 233 231 231 229 226 225 225 225 226 227 228 230
326 324 322 319 316 311 306 299 292 284 274 266 259 252 247 244 241 239 235 232 231 231 232 235 236 237 239 239 238 236 234 231 228 226 226 224 224 223 223 224 225 226 228
330 329 327 325 321 317 311 304 296 286 275 266 258 252 247 241 236 234 232 230 229 229 231 233 235 237 239 238 237 235 233 229 224 222 222 221 221 221 222 221 222 224 226
334 333 332 330 328 325 319 311 301 289 279 267 257 249 244 237 232 230 230 229 227 227 229 232 234 237 239 238 237 235 230 225 221 217 217 219 218 218 220 220 221 222 224
339 338 337 336 334 330 324 318 309 295 282 269 257 247 239 233 229 227 226 226 225 225 228 231 233 235 237 238 236 234 229 223 218 214 212 213 215 215 216 217 218 219 221
343 342 342 341 339 336 333 328 319 306 288 273 256 244 236 229 225 223 222 222 222 223 226 229 232 232 233 235 232 228 223 218 213 210 208 209 211 212 213 214 215 217 218
346 346 347 347 347 344 342 338 332 320 302 277 253 239 228 221 218 216 216 216 218 221 223 226 227 228 230 230 227 221 216 215 211 207 205 204 206 208 210 212 213 215 216
350 350 351 353 354 353 352 351 346 338 320 288 245 225 216 212 211 211 211 212 215 219 222 222 223 225 228 227 223 219 215 213 209 205 203 201 202 205 207 209 209 212 214
353 354 355 356 358 360 359 359 357 355 349 327 235 211 204 202 203 206 208 210 213 216 218 218 220 224 226 224 220 217 214 211 205 201 198 197 199 201 204 206 207 209 211
355 356 359 1 4 6 7 8 8 9 14 20 93 181 190 192 195 198 201 205 209 211 213 214 217 220 220 217 212 209 207 204 199 196 193 193 195 199 202 204 205 207 208
357 359 1 4 7 10 13 15 17 21 28 37 71 143 163 173 179 185 190 195 200 205 207 210 213 213 212 210 206 203 201 198 195 192 190 191 193 196 198 201 202 204 207
0 2 5 7 10 13 18 22 26 34 41 49 69 119 148 161 172 180 185 190 196 200 204 207 210 208 206 203 200 198 196 193 190 188 188 189 192 194 196 198 200 202 205
4 7 10 13 15 18 24 28 33 42 49 55 71 99 126 145 159 171 178 185 192 196 197 199 202 200 197 192 192 192 188 184 182 182 184 187 189 193 195 196 197 200 203
8 11 15 19 22 25 29 34 38 44 51 58 68 84 103 120 141 158 167 176 182 186 188 189 188 186 185 183 180 178 176 176 177 179 181 184 187 190 193 195 198 201 203
10 14 19 24 27 30 35 40 44 48 53 59 67 77 89 101 113 125 141 152 158 164 171 174 173 170 168 168 168 170 170 170 173 177 178 179 183 186 190 194 197 200 204
12 17 22 28 31 34 38 42 48 53 59 66 72 79 87 95 101 108 116 126 133 141 148 155 158 157 158 160 162 164 166 167 170 175 177 178 181 184 187 190 194 199 203
14 18 23 29 33 35 39 45 51 56 62 68 73 80 87 93 99 104 110 118 124 130 136 141 146 148 150 154 158 159 160 163 166 168 172 176 180 182 185 189 192 194 195
16 20 25 30 36 40 45 50 55 61 66 72 76 80 83 88 97 104 107 113 118 124 129 134 140 144 146 148 151 152 156 159 164 167 169 173 175 177 180 182 184 187 190
Height
5730 5725 5719 5714 5709 5705 5702 5699 5696 5694 5693 5693 5693 5694 5695 5697 5699 5702 5705 5709 5714 5718 5722 5727 5731 5735 5740 5745 5750 5755 5761 5766 5771 5776 5780 5785 5789 5792 5796 5798 5800 5802 5804
5716 5710 5704 5698 5693 5688 5684 5681 5678 5675 5674 5673 5673 5673 5675 5677 5679 5682 5685 5689 5694 5699 5704 5709 5715 5719 5724 5730 5735 5741 5748 5754 5759 5765 5769 5774 5779 5783 5787 5790 5793 5795 5797
5701 5695 5688 5682 5676 5670 5666 5662 5658 5656 5654 5653 5652 5652 5653 5655 5658 5661 5664 5669 5674 5679 5684 5690 5696 5701 5708 5714 5720 5727 5733 5740 5747 5753 5758 5763 5769 5774 5778 5782 5785 5788 5790
5686 5679 5671 5664 5658 5652 5647 5642 5639 5636 5634 5632 5631 5631 5632 5634 5637 5640 5643 5648 5653 5659 5665 5671 5677 5683 5690 5697 5703 5711 5718 5725 5733 5740 5746 5752 5758 5764 5769 5773 5777 5780 5783
5671 5663 5655 5647 5640 5633 5627 5622 5618 5616 5614 5612 5612 5612 5613 5615 5618 5621 5624 5628 5633 5639 5645 5651 5658 5664 5671 5678 5686 5694 5702 5710 5719 5726 5734 5741 5747 5754 5760 5764 5768 5772 5775
5655 5646 5638 5630 5622 5614 5608 5602 5599 5596 5594 5593 5593 5593 5595 5597 5600 5604 5607 5611 5616 5622 5627 5633 5639 5646 5653 5660 5668 5676 5685 5694 5704 5712 5721 5728 5736 5743 5749 5755 5760 5764 5767
5641 5631 5622 5613 5604 5596 5589 5584 5580 5576 5575 5574 5575 5576 5578 5580 5583 5587 5591 5596 5601 5607 5611 5617 5622 5628 5635 5642 5650 5658 5667 5677 5688 5697 5707 5716 5724 5732 5738 5745 5750 5755 5759
5627 5617 5607 5597 5588 5580 5572 5566 5562 5558 5557 5557 5557 5558 5561 5564 5567 5572 5576 5582 5588 5593 5599 5603 5608 5614 5620 5627 5634 5642 5651 5661 5672 5683 5694 5703 5711 5719 5727 5734 5739 5745 5750
5614 5603 5593 5582 5572 5564 5557 5550 5546 5542 5540 5540 5541 5542 5545 5549 5553 5557 5563 5569 5575 5582 5587 5592 5597 5602 5607 5613 5620 5629 5636 5645 5655 5667 5679 5689 5698 5707 5715 5723 5730 5736 5742
5603 5591 5580 5569 5558 5550 5542 5536 5531 5527 5526 5525 5526 5528 5531 5535 5539 5544 5550 5557 5564 5571 5577 5582 5587 5592 5596 5601 5607 5614 5621 5629 5640 5652 5665 5676 5686 5695 5705 5713 5721 5728 5734
5592 5580 5568 5557 5546 5537 5529 5523 5518 5515 5513 5513 5514 5516 5519 5523 5527 5533 5539 5546 5554 5560 5566 5572 5577 5582 5586 5591 5596 5602 5608 5616 5625 5637 5650 5662 5674 5685 5694 5703 5712 5719 5726
5583 5571 5559 5547 5536 5527 5519 5512 5507 5504 5502 5502 5504 5506 5508 5512 5517 5523 5529 5537 5544 5551 5557 5563 5568 5573 5577 5582 5587 5592 5598 5605 5615 5625 5638 5650 5663 5674 5684 5694 5702 5710 5717
5575 5563 5551 5539 5529 5519 5511 5505 5499 5496 5495 5494 5495 5497 5500 5504 5508 5514 5521 5528 5535 5542 5549 5554 5559 5564 5569 5573 5577 5582 5588 5595 5605 5616 5627 5640 5652 5664 5674 5684 5692 5700 5708
5569 5557 5545 5534 5523 5514 5506 5500 5495 5491 5489 5489 5489 5491 5494 5497 5502 5507 5514 5521 5528 5534 5541 5547 5552 5557 5561 5565 5569 5574 5580 5587 5595 5606 5617 5629 5641 5653 5664 5674 5684 5693 5700
5564 5552 5541 5530 5519 5510 5503 5497 5492 5489 5486 5485 5485 5486 5489 5493 5497 5502 5508 5515 5522 5528 5534 5540 5545 5550 5554 5558 5562 5567 5573 5580 5588 5598 5609 5621 5632 5644 5655 5666 5676 5685 5693
5560 5549 5538 5528 5518 5509 5502 5496 5491 5487 5485 5483 5483 5484 5486 5490 5494 5499 5505 5511 5517 5522 5528 5533 5538 5543 5548 5552 5556 5561 5567 5574 5581 5590 5601 5613 5625 5637 5648 5658 5668 5678 5686
5558 5547 5537 5527 5518 5510 5503 5497 5492 5488 5485 5484 5483 5484 5486 5489 5493 5497 5502 5508 5513 5518 5523 5528 5533 5537 5541 5545 5550 5555 5560 5567 5575 5584 5595 5607 5618 5630 5641 5651 5661 5671 5679
5557 5547 5537 5528 5519 5512 5505 5499 5494 5490 5487 5486 5485 5486 5487 5490 5493 5496 5501 5506 5510 5514 5519 5523 5528 5531 5535 5539 5544 5550 5555 5562 5570 5579 5590 5602 5613 5625 5636 5646 5656 5665 5673
5557 5547 5538 5529 5521 5514 5508 5502 5497 5493 5490 5489 5488 5488 5489 5491 5494 5497 5500 5504 5508 5512 5515 5519 5523 5527 5531 5535 5540 5545 5551 5558 5566 5576 5587 5598 5609 5620 5631 5642 5651 5660 5668
5559 5549 5540 5532 5524 5517 5511 5506 5501 5497 5494 5492 5491 5491 5492 5494 5495 5498 5501 5504 5507 5510 5513 5516 5519 5523 5527 5531 5536 5542 5548 5555 5563 5573 5584 5595 5606 5617 5628 5637 5646 5655 5663
5561 5552 5543 5535 5527 5521 5515 5510 5506 5502 5499 5497 5495 5495 5495 5496 5497 5499 5502 5504 5507 5509 5512 5515 5517 5521 5525 5529 5534 5540 5546 5554 5563 5573 5584 5594 5605 5615 5624 5633 5642 5651 5658
5564 5555 5547 5539 5532 5526 5520 5516 5511 5507 5504 5502 5500 5499 5499 5499 5500 5501 5503 5505 5507 5509 5511 5514 5517 5520 5524 5529 5534 5541 5548 5556 5565 5574 5584 5593 5603 5613 5622 5631 5639 5647 5654
5567 5559 5551 5544 5537 5531 5526 5521 5517 5514 5510 5508 5506 5504 5504 5503 5504 5504 5505 5507 5508 5510 5512 5515 5518 5522 5526 5531 5537 5544 5551 5559 5568 5577 5586 5595 5604 5613 5622 5630 5637 5645 5651
5570 5563 5556 5549 5543 5537 5532 5528 5523 5520 5517 5514 5512 5511 5510 5509 5509 5509 5510 5510 5512 5513 5515 5518 5521 5525 5530 5536 5542 5548 5555 5563 5571 5580 5589 5597 5605 5613 5621 5629 5636 5643 5649
5573 5567 5561 5555 5549 5544 5539 5534 5530 5527 5524 5521 5519 5518 5516 5515 5515 5515 5515 5516 5517 5519 5521 5524 5527 5531 5536 5541 5547 5553 5561 5568 5576 5584 5591 5599 5607 5614 5621 5628 5635 5641 5647
5577 5571 5565 5560 5555 5550 5545 5541 5537 5534 5531 5529 5527 5525 5524 5522 5522 5522 5522 5523 5524 5525 5528 5531 5534 5539 5543 5548 5554 5560 5567 5575 5582 5588 5595 5602 5609 5616 5623 5629 5635 5640 5646